Kelso-Longview, WA

6:21 AM PDT on March 23, 2017 (GMT -0700)
Kelso-Longview

Weather History for KKLS - August, 2012

Change the Weather History Date:

Friday, August 3, 2012

  Actual Average Record
Temperature  
Mean Temperature 72 °F -  
Max Temperature 86 °F 75 °F 91 °F (2014)
Min Temperature 59 °F 54 °F 48 °F (2002)
Cooling Degree Days 8    
Growing Degree Days 22 (Base 50)    
Moisture  
Dew Point 55 °F    
Average Humidity 64    
Maximum Humidity 88    
Minimum Humidity 31    
Precipitation  
Precipitation 0.00 in - - ()
Sea Level Pressure  
Sea Level Pressure 30.03 in    
Wind  
Wind Speed 7 mph (NNW)    
Max Wind Speed 14 mph    
Max Gust Speed 21 mph    
Visibility 10 miles    
Events      
Averages and records for this station are not official NWS values.
T = Trace of Precipitation, MM = Missing Value Source: NWS Daily Summary

Daily Weather History Graph

Daily Weather History Graph

Search for Another Location

Airport or City:

Trip Planner

Search our weather history database for the weather conditions in past years. The results will help you decide how hot, cold, wet, or windy it might be!

Date:

Astronomy

Aug. 03, 2012 Rise Set
Actual Time 5:56 AM PDT 8:37 PM PDT
Civil Twilight 5:22 AM PDT 9:12 PM PDT
Nautical Twilight 4:39 AM PDT 9:55 PM PDT
Astronomical Twilight 3:48 AM PDT 10:45 PM PDT
Moon 9:07 PM PDT (8/3) 7:55 AM PDT (8/3)
Length of Visible Light 15h 49m
Length of Day
14h 41m
Full, 97% of the Moon is Illuminated
Aug 3
Full
Aug 9
Last Quarter
Aug 17
New
Aug 24
First Quarter
Aug 31
Full

Hourly Weather History & Observations

Time (PDT) Temp. Heat Index Dew Point Humidity Pressure Visibility Wind Dir Wind Speed Gust Speed Precip Events Conditions
12:15 AM 60.8 °F - 57.2 °F 88% 30.11 in 10.0 mi NNW 4.6 mph - N/A   Mostly Cloudy
12:35 AM 60.8 °F - 57.2 °F 88% 30.10 in 10.0 mi North 4.6 mph - N/A   Overcast
12:55 AM 60.8 °F - 55.4 °F 82% 30.10 in 10.0 mi NNW 4.6 mph - N/A   Overcast
1:15 AM 60.8 °F - 55.4 °F 82% 30.10 in 10.0 mi NNW 5.8 mph - N/A   Overcast
1:35 AM 60.8 °F - 55.4 °F 82% 30.09 in 10.0 mi NNW 6.9 mph - N/A   Overcast
1:55 AM 60.8 °F - 55.4 °F 82% 30.09 in 10.0 mi NNW 8.1 mph - N/A   Overcast
2:15 AM 60.8 °F - 55.4 °F 82% 30.09 in 10.0 mi NNW 6.9 mph - N/A   Overcast
2:35 AM 59.0 °F - 55.4 °F 88% 30.09 in 10.0 mi NW 6.9 mph - N/A   Overcast
2:55 AM 59.0 °F - 55.4 °F 88% 30.09 in 10.0 mi NNW 4.6 mph - N/A   Overcast
3:15 AM 60.8 °F - 55.4 °F 82% 30.09 in 10.0 mi North 3.5 mph - N/A   Overcast
3:35 AM 59.0 °F - 55.4 °F 88% 30.09 in 10.0 mi NNW 4.6 mph - N/A   Overcast
3:55 AM 59.0 °F - 55.4 °F 88% 30.09 in 10.0 mi NW 5.8 mph - N/A   Overcast
4:15 AM 60.8 °F - 55.4 °F 82% 30.09 in 10.0 mi NNW 4.6 mph - N/A   Overcast
4:35 AM 59.0 °F - 55.4 °F 88% 30.09 in 10.0 mi North 8.1 mph - N/A   Overcast
4:55 AM 59.0 °F - 55.4 °F 88% 30.09 in 10.0 mi North 9.2 mph - N/A   Overcast
5:15 AM 59.0 °F - 55.4 °F 88% 30.09 in 10.0 mi North 5.8 mph - N/A   Overcast
5:35 AM 59.0 °F - 55.4 °F 88% 30.09 in 10.0 mi North 6.9 mph - N/A   Overcast
5:55 AM 59.0 °F - 55.4 °F 88% 30.09 in 10.0 mi NNE 4.6 mph - N/A   Overcast
6:15 AM 59.0 °F - 55.4 °F 88% 30.09 in 10.0 mi North 4.6 mph - N/A   Overcast
6:35 AM 59.0 °F - 55.4 °F 88% 30.09 in 10.0 mi NNW 5.8 mph - N/A   Overcast
6:55 AM 59.0 °F - 55.4 °F 88% 30.10 in 10.0 mi NNW 4.6 mph - N/A   Overcast
7:15 AM 59.0 °F - 55.4 °F 88% 30.10 in 10.0 mi NNW 4.6 mph - N/A   Overcast
7:35 AM 59.0 °F - 55.4 °F 88% 30.10 in 10.0 mi NW 4.6 mph - N/A   Overcast
7:55 AM 59.0 °F - 55.4 °F 88% 30.11 in 10.0 mi North 6.9 mph - N/A   Overcast
8:15 AM 59.0 °F - 55.4 °F 88% 30.11 in 10.0 mi NNW 5.8 mph - N/A   Overcast
8:35 AM 60.8 °F - 55.4 °F 82% 30.11 in 10.0 mi NNW 5.8 mph - N/A   Overcast
8:55 AM 60.8 °F - 55.4 °F 82% 30.10 in 10.0 mi North 9.2 mph - N/A   Overcast
9:15 AM 60.8 °F - 55.4 °F 82% 30.10 in 10.0 mi NNW 8.1 mph - N/A   Overcast
9:35 AM 62.6 °F - 55.4 °F 77% 30.09 in 10.0 mi NNW 10.4 mph - N/A   Overcast
9:55 AM 62.6 °F - 55.4 °F 77% 30.09 in 10.0 mi North 10.4 mph 17.3 mph N/A   Mostly Cloudy
10:15 AM 64.4 °F - 55.4 °F 73% 30.09 in 10.0 mi North 11.5 mph - N/A   Scattered Clouds
10:35 AM 64.4 °F - 55.4 °F 73% 30.09 in 10.0 mi North 10.4 mph - N/A   Clear
10:55 AM 66.2 °F - 55.4 °F 68% 30.08 in 10.0 mi North 10.4 mph 16.1 mph N/A   Clear
11:15 AM 66.2 °F - 55.4 °F 68% 30.07 in 10.0 mi North 10.4 mph - N/A   Clear
11:35 AM 69.8 °F - 57.2 °F 64% 30.06 in 10.0 mi NNW 9.2 mph - N/A   Clear
11:55 AM 69.8 °F - 57.2 °F 64% 30.06 in 10.0 mi NNW 12.7 mph 17.3 mph N/A   Clear
12:15 PM 71.6 °F - 57.2 °F 60% 30.05 in 10.0 mi NNW 11.5 mph 17.3 mph N/A   Clear
12:35 PM 75.2 °F - 57.2 °F 53% 30.04 in 10.0 mi North 8.1 mph - N/A   Clear
12:55 PM 75.2 °F - 57.2 °F 53% 30.03 in 10.0 mi NNW 10.4 mph 17.3 mph N/A   Clear
1:15 PM 78.8 °F - 57.2 °F 47% 30.02 in 10.0 mi North 11.5 mph 17.3 mph N/A   Clear
1:35 PM 80.6 °F 81.1 °F 59.0 °F 48% 30.02 in 10.0 mi NNW 9.2 mph - N/A   Clear
1:55 PM 80.6 °F 81.1 °F 59.0 °F 48% 30.01 in 10.0 mi North 9.2 mph - N/A   Clear
2:15 PM 82.4 °F 82.0 °F 57.2 °F 42% 30.00 in 10.0 mi NNW 8.1 mph 17.3 mph N/A   Clear
2:35 PM 82.4 °F 82.0 °F 57.2 °F 42% 29.99 in 10.0 mi NW 9.2 mph - N/A   Clear
2:55 PM 84.2 °F 83.5 °F 57.2 °F 40% 29.98 in 10.0 mi North 12.7 mph - N/A   Clear
3:15 PM 84.2 °F 83.5 °F 57.2 °F 40% 29.99 in 10.0 mi North 12.7 mph 18.4 mph N/A   Clear
3:35 PM 84.2 °F 83.5 °F 57.2 °F 40% 29.98 in 10.0 mi North 10.4 mph 17.3 mph N/A   Clear
3:55 PM 84.2 °F 83.0 °F 55.4 °F 37% 29.97 in 10.0 mi NNW 11.5 mph 17.3 mph N/A   Clear
4:15 PM 86.0 °F 84.2 °F 53.6 °F 33% 29.97 in 10.0 mi North 11.5 mph 18.4 mph N/A   Clear
4:35 PM 86.0 °F 84.2 °F 53.6 °F 33% 29.96 in 10.0 mi North 11.5 mph - N/A   Clear
4:55 PM 86.0 °F - 51.8 °F 31% 29.96 in 10.0 mi North 12.7 mph 18.4 mph N/A   Clear
5:15 PM 84.2 °F - 51.8 °F 33% 29.95 in 10.0 mi NNW 12.7 mph 18.4 mph N/A   Clear
5:35 PM 84.2 °F 82.8 °F 53.6 °F 35% 29.95 in 10.0 mi North 13.8 mph 20.7 mph N/A   Clear
5:55 PM 84.2 °F 83.0 °F 55.4 °F 37% 29.94 in 10.0 mi North 9.2 mph 17.3 mph N/A   Clear
6:35 PM 84.2 °F 83.0 °F 55.4 °F 37% 29.93 in 10.0 mi North 6.9 mph - N/A   Clear
6:55 PM 82.4 °F 81.7 °F 55.4 °F 39% 29.93 in 10.0 mi North 6.9 mph - N/A   Clear
7:15 PM 82.4 °F 81.4 °F 53.6 °F 37% 29.93 in 10.0 mi North 12.7 mph - N/A   Clear
7:35 PM 82.4 °F 81.4 °F 53.6 °F 37% 29.93 in 10.0 mi North 10.4 mph - N/A   Clear
7:55 PM 80.6 °F 80.3 °F 53.6 °F 39% 29.93 in 10.0 mi North 6.9 mph - N/A   Clear
8:15 PM 80.6 °F 80.3 °F 53.6 °F 39% 29.94 in 10.0 mi NNE 4.6 mph - N/A   Clear
8:35 PM 78.8 °F - 53.6 °F 42% 29.94 in 10.0 mi North 5.8 mph - N/A   Clear
8:55 PM 75.2 °F - 53.6 °F 47% 29.94 in 5.0 mi Calm Calm - N/A   Clear
9:15 PM 71.6 °F - 55.4 °F 57% 29.94 in 2.5 mi Calm Calm - N/A   Clear
9:35 PM 71.6 °F - 53.6 °F 53% 29.94 in 10.0 mi WSW 3.5 mph - N/A   Clear
9:55 PM 71.6 °F - 53.6 °F 53% 29.94 in 10.0 mi Calm Calm - N/A   Clear
10:15 PM 73.4 °F - 53.6 °F 50% 29.94 in 10.0 mi Calm Calm - N/A   Clear
10:35 PM 71.6 °F - 53.6 °F 53% 29.94 in 10.0 mi NNW 3.5 mph - N/A   Clear
10:55 PM 69.8 °F - 53.6 °F 56% 29.94 in 10.0 mi North 6.9 mph - N/A   Clear
11:15 PM 73.4 °F - 53.6 °F 50% 29.94 in 10.0 mi North 6.9 mph - N/A   Clear
11:35 PM 71.6 °F - 53.6 °F 53% 29.93 in 10.0 mi Calm Calm - N/A   Clear
11:55 PM 71.6 °F - 53.6 °F 53% 29.93 in 10.0 mi North 6.9 mph - N/A   Clear